| time (UTC) | temp F | wind direction | speed knots | gust knots | rain 1hr in | rain 24hr in | rain mn in | humidity % | barometer mb |
| 20260510153000 | 64 | 41 | 1.7 | 6.1 | 0.00 | 0.20 | 0.00 | 75 | 1012.3 |
| 20260510145959 | 63 | 233 | 4.3 | 7.8 | 0.00 | 0.21 | 0.00 | 77 | 1012.3 |
| 20260510144959 | 62 | 130 | 4.3 | 10.4 | 0.00 | 0.21 | 0.00 | 81 | 1012.3 |
| 20260510143958 | 62 | 213 | 5.2 | 8.7 | 0.00 | 0.21 | 0.00 | 80 | 1012.4 |
| 20260510141959 | 61 | 188 | 4.3 | 7.8 | 0.00 | 0.21 | 0.00 | 83 | 1012.5 |
| 20260510140959 | 61 | 304 | 3.5 | 7.0 | 0.00 | 0.21 | 0.00 | 85 | 1012.3 |
| 20260510134958 | 60 | 234 | 3.5 | 7.0 | 0.00 | 0.21 | 0.00 | 85 | 1012.2 |
| 20260510133958 | 59 | 207 | 1.7 | 5.2 | 0.00 | 0.21 | 0.00 | 87 | 1012.2 |
| 20260510132958 | 58 | 228 | 3.5 | 6.1 | 0.00 | 0.21 | 0.00 | 87 | 1012.3 |
| 20260510131959 | 58 | 183 | 3.5 | 7.8 | 0.00 | 0.21 | 0.00 | 88 | 1012.4 |
| 20260510124958 | 55 | 209 | 2.6 | 5.2 | 0.00 | 0.21 | 0.00 | 96 | 1012.2 |
| 20260510123958 | 53 | 225 | 2.6 | 4.3 | 0.00 | 0.21 | 0.00 | 97 | 1012.1 |
| 20260510122958 | 53 | 200 | 0.9 | 4.3 | 0.00 | 0.21 | 0.00 | 97 | 1011.9 |
| 20260510121958 | 52 | 158 | 0.0 | 1.7 | 0.00 | 0.21 | 0.00 | 98 | 1011.9 |
| 20260510120959 | 51 | 189 | 0.9 | 1.7 | 0.00 | 0.21 | 0.00 | 97 | 1011.9 |
| 20260510115959 | 51 | 219 | 0.9 | 1.7 | 0.00 | 0.21 | 0.00 | 98 | 1011.9 |
| 20260510114958 | 51 | 197 | 1.7 | 2.6 | 0.00 | 0.21 | 0.00 | 98 | 1011.8 |
| 20260510113958 | 51 | 179 | 0.9 | 2.6 | 0.00 | 0.21 | 0.00 | 98 | 1011.6 |
| 20260510112958 | 51 | 223 | 0.9 | 1.7 | 0.00 | 0.21 | 0.00 | 98 | 1011.5 |
| 20260510111959 | 50 | 184 | 0.0 | 1.7 | 0.00 | 0.21 | 0.00 | 98 | 1011.4 |
| 20260510110959 | 50 | 133 | 0.0 | 0.0 | 0.00 | 0.21 | 0.00 | 98 | 1011.4 |
| 20260510110000 | 50 | 133 | 0.0 | 0.0 | 0.00 | 0.21 | 0.00 | 98 | 1011.3 |
| 20260510104958 | 50 | 133 | 0.0 | 1.7 | 0.00 | 0.22 | 0.00 | 98 | 1011.0 |
| 20260510103959 | 50 | 342 | 0.0 | 1.7 | 0.00 | 0.22 | 0.00 | 98 | 1011.1 |
| 20260510101958 | 49 | 148 | 0.0 | 1.7 | 0.00 | 0.22 | 0.00 | 97 | 1010.6 |
| 20260510094957 | 49 | 262 | 0.0 | 1.7 | 0.00 | 0.22 | 0.00 | 97 | 1010.6 |
| 20260510093958 | 49 | 220 | 0.0 | 1.7 | 0.00 | 0.22 | 0.00 | 97 | 1010.5 |
| 20260510092957 | 49 | 278 | 0.9 | 1.7 | 0.00 | 0.22 | 0.00 | 98 | 1010.4 |
| 20260510091957 | 49 | 292 | 0.9 | 1.7 | 0.00 | 0.22 | 0.00 | 97 | 1010.2 |
| 20260510090957 | 49 | 310 | 0.9 | 1.7 | 0.00 | 0.22 | 0.00 | 97 | 1010.4 |
| 20260510085957 | 49 | 270 | 1.7 | 3.5 | 0.00 | 0.22 | 0.00 | 98 | 1010.3 |
| 20260510084958 | 49 | 180 | 1.7 | 3.5 | 0.00 | 0.22 | 0.00 | 97 | 1010.5 |
| 20260510083957 | 49 | 234 | 0.9 | 2.6 | 0.00 | 0.22 | 0.00 | 97 | 1010.7 |
| 20260510082957 | 49 | 210 | 0.0 | 0.9 | 0.00 | 0.22 | 0.00 | 97 | 1010.8 |
| 20260510081957 | 49 | 178 | 0.0 | 1.7 | 0.00 | 0.22 | 0.00 | 97 | 1011.0 |
| 20260510080957 | 49 | 153 | 0.0 | 0.0 | 0.00 | 0.22 | 0.00 | 97 | 1011.0 |
| 20260510075957 | 49 | 254 | 0.0 | 0.9 | 0.00 | 0.22 | 0.00 | 97 | 1011.4 |
| 20260510074957 | 49 | 160 | 0.9 | 2.6 | 0.00 | 0.22 | 0.00 | 97 | 1011.2 |
| 20260510073957 | 49 | 143 | 0.0 | 0.9 | 0.00 | 0.22 | 0.00 | 97 | 1011.3 |
| 20260510072957 | 49 | 137 | 0.0 | 1.7 | 0.00 | 0.22 | 0.00 | 98 | 1011.4 |
| 20260510071957 | 49 | 297 | 0.0 | 1.7 | 0.00 | 0.22 | 0.00 | 98 | 1011.4 |
| 20260510070957 | 49 | 128 | 2.6 | 5.2 | 0.00 | 0.22 | 0.00 | 98 | 1011.3 |
| 20260510065957 | 48 | 328 | 0.0 | 2.6 | 0.00 | 0.23 | 0.00 | 97 | 1010.9 |
| 20260510064958 | 47 | 161 | 0.0 | 0.0 | 0.00 | 0.23 | 0.00 | 98 | 1010.7 |
| 20260510063957 | 47 | 161 | 0.0 | 0.0 | 0.00 | 0.23 | 0.00 | 97 | 1010.8 |
| 20260510062957 | 47 | 261 | 0.0 | 0.0 | 0.00 | 0.23 | 0.00 | 97 | 1010.9 |
| 20260510061958 | 46 | 229 | 0.0 | 0.0 | 0.00 | 0.23 | 0.00 | 97 | 1010.9 |
| 20260510060000 | 46 | 147 | 0.0 | 0.0 | 0.00 | 0.23 | 0.00 | 97 | 1011.0 |
| 20260510053959 | 46 | 348 | 0.0 | 1.7 | 0.00 | 0.24 | 0.00 | 97 | 1011.0 |
| 20260510052959 | 44 | 116 | 0.0 | 0.0 | 0.00 | 0.24 | 0.00 | 97 | 1010.8 |
| 20260510051959 | 44 | 116 | 0.0 | 0.0 | 0.00 | 0.24 | 0.00 | 96 | 1010.5 |
| 20260510050958 | 44 | 117 | 0.0 | 0.0 | 0.00 | 0.24 | 0.00 | 96 | 1010.4 |
| 20260510050004 | 44 | 116 | 0.0 | 0.0 | 0.00 | 0.24 | 0.00 | 96 | 1010.4 |
| 20260510045000 | 44 | 116 | 0.0 | 0.0 | 0.00 | 0.25 | 0.00 | 96 | 1010.6 |
| 20260510044000 | 45 | 117 | 0.0 | 0.0 | 0.00 | 0.25 | 0.00 | 97 | 1010.6 |
| 20260510043001 | 44 | 116 | 0.0 | 0.0 | 0.00 | 0.25 | 0.00 | 96 | 1010.6 |
| 20260510042000 | 44 | 117 | 0.0 | 0.0 | 0.00 | 0.25 | 0.00 | 96 | 1010.6 |
| 20260510041000 | 44 | 116 | 0.0 | 0.0 | 0.00 | 0.25 | 0.00 | 96 | 1010.6 |
| 20260510040000 | 44 | 69 | 0.0 | 0.0 | 0.00 | 0.25 | 0.25 | 96 | 1010.7 |
| 20260510035000 | 44 | 11 | 0.0 | 0.0 | 0.00 | 0.25 | 0.25 | 96 | 1010.6 |
| 20260510033959 | 43 | 11 | 0.0 | 0.0 | 0.00 | 0.25 | 0.25 | 95 | 1010.4 |
| 20260510031959 | 44 | 123 | 0.0 | 0.0 | 0.00 | 0.25 | 0.25 | 95 | 1010.3 |
| 20260510024959 | 45 | 123 | 0.0 | 0.0 | 0.00 | 0.25 | 0.25 | 95 | 1010.3 |
| 20260510022000 | 46 | 123 | 0.0 | 0.9 | 0.00 | 0.25 | 0.25 | 94 | 1010.3 |
| 20260510020959 | 47 | 123 | 0.0 | 1.7 | 0.00 | 0.25 | 0.25 | 94 | 1010.2 |
| 20260510015959 | 48 | 350 | 0.0 | 0.0 | 0.00 | 0.25 | 0.25 | 94 | 1010.2 |
| 20260510014959 | 49 | 350 | 0.0 | 0.0 | 0.00 | 0.25 | 0.25 | 95 | 1010.1 |
| 20260510014000 | 49 | 350 | 0.0 | 0.0 | 0.00 | 0.25 | 0.25 | 95 | 1010.0 |
| 20260510012959 | 49 | 309 | 0.0 | 0.0 | 0.00 | 0.25 | 0.25 | 93 | 1010.1 |
| 20260510011959 | 49 | 309 | 0.0 | 0.0 | 0.00 | 0.25 | 0.25 | 93 | 1010.2 |
| 20260510010959 | 50 | 309 | 0.0 | 0.0 | 0.00 | 0.25 | 0.25 | 93 | 1010.1 |
| 20260510005000 | 51 | 309 | 0.9 | 1.7 | 0.00 | 0.25 | 0.25 | 93 | 1009.8 |
| 20260510004000 | 52 | 269 | 0.0 | 0.0 | 0.00 | 0.25 | 0.25 | 92 | 1009.6 |
| 20260510002959 | 52 | 153 | 0.0 | 0.0 | 0.00 | 0.25 | 0.25 | 91 | 1009.3 |
| 20260510002000 | 53 | 153 | 0.0 | 0.9 | 0.00 | 0.25 | 0.25 | 90 | 1009.3 |
| 20260510000002 | 54 | 198 | 1.7 | 3.5 | 0.00 | 0.25 | 0.25 | 89 | 1009.3 |
| 20260509235000 | 55 | 168 | 1.7 | 2.6 | 0.00 | 0.25 | 0.25 | 88 | 1009.1 |
| 20260509234000 | 55 | 219 | 1.7 | 3.5 | 0.00 | 0.25 | 0.25 | 88 | 1009.1 |
| 20260509233001 | 55 | 194 | 2.6 | 5.2 | 0.00 | 0.25 | 0.25 | 87 | 1008.9 |
| 20260509232001 | 56 | 187 | 2.6 | 4.3 | 0.00 | 0.25 | 0.25 | 87 | 1008.8 |
| 20260509231000 | 56 | 193 | 3.5 | 6.1 | 0.00 | 0.25 | 0.25 | 87 | 1008.9 |
| 20260509224959 | 56 | 180 | 2.6 | 5.2 | 0.00 | 0.25 | 0.25 | 88 | 1009.0 |
| 20260509223959 | 56 | 192 | 2.6 | 3.5 | 0.00 | 0.25 | 0.25 | 88 | 1009.0 |
| 20260509223000 | 56 | 205 | 3.5 | 6.1 | 0.00 | 0.25 | 0.25 | 88 | 1009.0 |
| 20260509221959 | 56 | 216 | 2.6 | 3.5 | 0.00 | 0.25 | 0.25 | 88 | 1009.1 |
| 20260509220958 | 56 | 221 | 3.5 | 7.0 | 0.00 | 0.25 | 0.25 | 89 | 1009.2 |
| 20260509215959 | 56 | 174 | 3.5 | 6.1 | 0.00 | 0.25 | 0.25 | 89 | 1009.1 |
| 20260509213959 | 55 | 188 | 2.6 | 4.3 | 0.00 | 0.25 | 0.25 | 91 | 1009.4 |
| 20260509212959 | 55 | 190 | 1.7 | 3.5 | 0.00 | 0.25 | 0.25 | 92 | 1009.4 |
| 20260509212000 | 54 | 173 | 2.6 | 4.3 | 0.00 | 0.25 | 0.25 | 92 | 1009.4 |
| 20260509210959 | 54 | 220 | 2.6 | 4.3 | 0.01 | 0.25 | 0.25 | 92 | 1009.4 |
| 20260509205959 | 54 | 189 | 2.6 | 5.2 | 0.01 | 0.25 | 0.25 | 91 | 1009.4 |
| 20260509203000 | 54 | 202 | 1.7 | 3.5 | 0.04 | 0.25 | 0.25 | 93 | 1009.5 |
| 20260509201959 | 54 | 205 | 1.7 | 4.3 | 0.05 | 0.25 | 0.25 | 94 | 1009.6 |
| 20260509201000 | 53 | 108 | 1.7 | 3.5 | 0.05 | 0.24 | 0.24 | 94 | 1009.8 |
| 20260509200004 | 53 | 201 | 2.6 | 4.3 | 0.06 | 0.24 | 0.24 | 93 | 1010.2 |
| 20260509195000 | 53 | 174 | 2.6 | 4.3 | 0.05 | 0.22 | 0.22 | 93 | 1010.4 |
| 20260509194001 | 53 | 221 | 2.6 | 6.1 | 0.05 | 0.22 | 0.22 | 93 | 1010.5 |
| 20260509192001 | 54 | 207 | 2.6 | 5.2 | 0.04 | 0.20 | 0.20 | 93 | 1010.6 |
| 20260509191000 | 54 | 196 | 2.6 | 5.2 | 0.05 | 0.19 | 0.19 | 93 | 1010.7 |
| 20260509184959 | 54 | 212 | 2.6 | 6.1 | 0.07 | 0.17 | 0.17 | 92 | 1010.8 |
| 20260509183959 | 54 | 235 | 2.6 | 6.1 | 0.08 | 0.17 | 0.17 | 93 | 1010.9 |
| 20260509182959 | 54 | 225 | 1.7 | 4.3 | 0.09 | 0.17 | 0.17 | 93 | 1010.9 |
| 20260509182000 | 54 | 163 | 3.5 | 5.2 | 0.08 | 0.16 | 0.16 | 93 | 1011.0 |
| 20260509180000 | 54 | 194 | 4.3 | 7.8 | 0.05 | 0.12 | 0.12 | 91 | 1011.2 |
| 20260509174958 | 55 | 195 | 4.3 | 8.7 | 0.03 | 0.10 | 0.10 | 90 | 1011.1 |
| 20260509174000 | 55 | 186 | 3.5 | 6.1 | 0.02 | 0.09 | 0.09 | 90 | 1010.9 |
| 20260509172959 | 55 | 239 | 5.2 | 8.7 | 0.01 | 0.08 | 0.08 | 90 | 1011.0 |
| 20260509172000 | 55 | 203 | 5.2 | 10.4 | 0.01 | 0.08 | 0.08 | 90 | 1010.9 |
| 20260509171000 | 55 | 207 | 4.3 | 7.8 | 0.00 | 0.07 | 0.07 | 89 | 1010.9 |
| 20260509165958 | 55 | 190 | 5.2 | 11.3 | 0.00 | 0.07 | 0.07 | 88 | 1010.9 |
| 20260509164959 | 55 | 198 | 5.2 | 10.4 | 0.00 | 0.07 | 0.07 | 89 | 1011.0 |
| 20260509163959 | 55 | 214 | 3.5 | 8.7 | 0.00 | 0.07 | 0.07 | 91 | 1010.9 |
| 20260509163000 | 55 | 212 | 2.6 | 5.2 | 0.01 | 0.07 | 0.07 | 91 | 1010.7 |
| 20260509160959 | 55 | 115 | 0.0 | 0.0 | 0.02 | 0.07 | 0.07 | 92 | 1010.8 |
| 20260509155959 | 55 | 158 | 0.0 | 1.7 | 0.02 | 0.07 | 0.07 | 92 | 1011.1 |
| 20260509154959 | 55 | 284 | 0.0 | 2.6 | 0.03 | 0.07 | 0.07 | 92 | 1011.2 |
| 20260509153959 | 55 | 43 | 0.0 | 0.0 | 0.03 | 0.07 | 0.07 | 92 | 1011.2 |